Location: Ladd Observatory
(41.8387°N, 71.3996°W)
Time: 09:34:31
(UTC-05:00)

Daily predictions for brighter satellites

Satellite Brightness Start Highest point End
(mag) Time Altitude Azimuth Time Altitude Azimuth Time Altitude Azimuth
Cosmos 2297 4.2 16:38:28 10° S 16:43:42 41° ESE 16:48:57 10° NE
Cosmos 1544 Rocket 3.7 16:42:31 10° N 16:47:01 83° W 16:51:29 10° S
Cosmos 2278 Rocket 2.4 16:46:20 10° SSW 16:51:59 81° WNW 16:57:40 10° NNE
COSMO-SKYMED 1 4.1 16:52:06 10° NE 16:55:06 18° E 16:58:05 10° SE
SJ-12 4.0 16:52:28 10° SSE 16:56:30 58° ENE 17:00:34 10° N
NOSS 2-1 (E) 4.2 16:53:29 10° S 16:56:59 33° ESE 17:00:51 10° NE
Cosmos 921 Rocket 3.6 16:55:50 10° SSE 16:59:46 38° E 17:03:48 10° NNE
Meteor 1-18 Rocket 4.4 16:56:02 10° S 17:01:43 84° W 17:07:33 10° N
Cosmos 1025 Rocket 4.4 16:58:42 10° SE 17:01:52 20° E 17:05:02 10° NE
Cosmos 1666 4.3 17:00:31 10° NNE 17:02:57 16° ENE 17:05:22 10° ESE
IDEFIX/ARIANE 42P 2.5 16:58:23 10° SSE 17:03:31 67° ENE 17:08:40 10° N
Thor Agena Rocket 3.6 16:59:29 10° NNE 17:04:43 65° ESE 17:09:57 10° S
Genesis I 4.0 17:01:08 10° NW 17:04:59 55° WSW 17:08:47 10° SSE
Okean 1 3.3 17:01:24 10° S 17:05:27 88° E 17:09:32 10° N
Abrixas 2.4 17:02:39 10° WNW 17:05:36 83° SSW 17:08:34 10° ESE
Intercosmos 25 3.8 17:03:57 10° NNE 17:06:43 27° ENE 17:09:44 10° SE
Cosmos 1238 Rocket 3.2 17:04:20 10° SSW 17:07:12 47° W 17:10:23 10° N
Timation 2 Rocket 4.2 17:00:32 10° NNW 17:07:23 70° ENE 17:14:14 10° SE
Cosmos 1833 Rocket 2.8 17:02:35 10° NNW 17:08:06 51° ENE 17:13:34 10° SE
Cosmos 1346 Rocket 2.7 17:04:57 10° S 17:08:49 67° E 17:12:41 10° NNE
Cosmos 1536 Rocket 3.8 17:04:47 10° SSW 17:09:15 78° W 17:13:45 10° N
USA 234 3.3 17:08:53 10° NE 17:15:23 76° SE 17:21:55 10° SW
Cosmos 2082 Rocket 2.1 17:11:44 10° NNW 17:17:25 72° ENE 17:23:05 10° SSE
YAOGAN 1 2.5 17:14:47 10° SSE 17:19:06 86° ENE 17:23:28 10° NNW
Cosmos 1500 3.5 17:20:46 10° NNW 17:24:36 71° W 17:28:26 10° S
CZ-2C R/B 2.8 17:21:34 10° S 17:26:35 74° WSW 17:31:46 10° NNW
Cosmos 1743 2.7 17:23:19 10° N 17:27:09 55° E 17:30:55 10° SSE
Timation 1 Rocket 4.3 17:21:45 10° SSW 17:27:42 79° ESE 17:33:41 10° NNE
COSMOS 2441 4.4 17:23:05 10° SSE 17:27:53 63° ENE 17:32:45 10° N
MONITOR-E 4.3 17:25:03 10° SSE 17:28:10 54° ENE 17:31:19 10° N
Nadezhda 3 Rocket 3.9 17:23:32 10° S 17:29:43 76° E 17:36:01 10° N
NOSS 3-4 (A) 3.9 17:23:35 10° NNW 17:30:26 55° NE 17:37:40 10° SE
NOSS 3-4 (C) 3.9 17:23:41 10° NNW 17:30:31 54° NE 17:37:45 10° SE
Meteor 1-28 Rocket 4.3 17:31:27 23° E 17:31:54 24° E 17:34:59 10° SSE
Meteor 1-19 Rocket 4.2 17:33:49 10° S 17:39:35 73° E 17:45:27 10° NNE
SL-8 R/B 4.5 17:36:55 10° W 17:41:26 40° N 17:43:47 24° NE
Delta 2 Rocket 4.4 17:39:14 10° WSW 17:42:30 32° S 17:44:48 17° SE
Cosmos 407 Rocket 3.9 17:38:32 10° N 17:43:17 36° ENE 17:48:02 10° SE
SKYMED 2 3.6 17:39:26 12° NNE 17:43:26 59° E 17:47:41 10° S
Cosmos 1484 Rocket 2.5 17:41:24 10° SSE 17:45:07 74° ENE 17:48:50 10° N
Cosmos 2056 Rocket 3.6 17:40:35 10° S 17:45:48 54° ESE 17:49:18 20° NE
GRACE-2 4.0 17:44:54 10° S 17:47:40 72° W 17:49:49 15° N
GRACE-1 4.1 17:45:20 10° S 17:48:05 69° W 17:50:18 15° N
ERBS 4.4 17:45:59 10° NNW 17:47:18 15° N 17:47:18 15° N
SMAP 4.5 17:46:59 10° SSW 17:51:20 40° W 17:55:45 10° NNW
Cosmos 2369 Rocket 3.3 17:51:08 10° SSE 17:54:58 23° ESE 17:54:58 23° ESE
Meteor 2-9 Rocket 4.0 17:50:14 10° N 17:55:38 64° ENE 18:00:53 10° SSE
Meteor 1-15 Rocket 4.4 17:50:11 10° N 17:55:57 53° ENE 18:01:35 10° SSE
Okean 2 3.6 17:52:26 10° SSE 17:56:25 46° E 17:57:07 41° ENE
Cosmos 1892 Rocket 3.8 17:53:54 10° SSE 17:58:02 44° E 17:58:40 41° ENE
Cosmos 1624 Rocket 3.9 17:53:26 10° SSW 17:58:37 77° ESE 18:02:04 22° NNE
NOAA 12 4.1 17:55:19 10° SSE 18:00:25 53° ENE 18:05:31 10° N
Meteor 1-23 Rocket 4.1 17:56:35 10° S 18:02:14 70° E 18:07:34 11° NNE
Meteor 2-4 Rocket 3.5 17:58:21 10° S 18:03:42 83° E 18:09:04 10° NNE
Cosmos 1726 Rocket 3.5 17:59:37 10° N 18:04:02 58° E 18:08:25 10° SSE
Okean 1-7 Rocket 4.3 17:59:47 10° SSW 18:04:11 54° W 18:08:34 10° N
Cosmos 1371 Rocket 4.1 17:59:16 10° SSW 18:04:37 78° WNW 18:08:53 17° NNE
CZ-4 R/B 4.4 18:04:35 10° SW 18:07:29 18° W 18:10:23 10° NW
Tiangong 1 1.6 18:06:52 10° W 18:09:19 52° WNW 18:09:19 52° WNW
Meteor 2-8 Rocket 4.3 18:03:57 10° S 18:09:59 73° E 18:16:06 10° NNE
ISS -0.8 18:09:47 10° NNW 18:10:48 14° NNW 18:10:48 14° NNW
Cosmos 1934 Rocket 3.9 18:06:13 10° N 18:12:29 86° E 18:18:48 10° S
BREEZE-M DEB (TANK) 4.4 18:11:01 10° WNW 18:15:37 30° N 18:15:37 30° N
Cosmos 1340 3.9 18:16:53 10° S 18:18:56 30° S 18:18:56 30° S
Cosmos 1606 Rocket 3.8 18:19:06 10° NNW 18:23:34 71° W 18:28:01 10° S
Cosmos 1339 Rocket 4.4 18:21:02 10° SSE 18:26:55 54° E 18:27:18 53° ENE
METEOR-M 4.0 18:21:46 10° SSE 18:27:06 78° ENE 18:32:28 10° N
COSMO-SKYMED 1 3.8 18:28:03 14° N 18:31:25 40° WNW 18:35:28 10° SW
Cosmos 1452 Rocket 3.7 18:29:31 10° S 18:33:52 54° SSE 18:33:52 54° SSE
Cosmos 1190 Rocket 4.3 18:29:58 10° NNW 18:35:11 66° WSW 18:40:19 10° S
GEOS 3 Rocket 3.5 18:36:10 67° NNE 18:36:10 67° NNE 18:41:00 10° NNW
Cosmos 1666 4.3 18:35:13 10° NNW 18:38:45 34° W 18:42:17 10° SSW
Cosmos 1153 Rocket 4.3 18:44:29 10° N 18:50:41 82° E 18:56:49 10° S
Cosmos 1605 Rocket 4.4 18:51:44 10° NNW 18:57:55 61° W 19:03:58 10° S
USA 234 4.1 18:56:14 33° N 18:58:05 40° NNW 19:04:04 10° W
CZ-3B DEB 4.1 18:56:08 10° WNW 19:01:55 38° N 19:04:31 33° NNE
BREEZE M DEB (TANK) 4.5 19:26:42 10° WNW 19:31:50 66° SSW 19:34:21 52° SSE
Cosmos 2369 Rocket 3.7 19:33:42 10° SW 19:36:50 31° WSW 19:36:50 31° WSW
FALCON 9 R/B 3.8 19:36:36 10° W 19:49:07 42° SW 19:49:07 42° SW
